Regional Weather Roundup
Issued by NWS

Home | Current Version | Previous Version | Text Only | Print | Product List | Glossary On
Versions: 1 2 3 4 5 6 7 8 9 10 11 12 13 14 15 16 17 18 19 20 21 22 23 24 25 26 27 28 29 30 31 32 33 34 35 36 37 38 39 40 41 42 43 44 45 46 47 48 49 50
000
ASUS43 KOAX 011910
RWRNE

WEATHER ROUNDUP FOR NEBRASKA
NATIONAL WEATHER SERVICE OMAHA NE
200 PM CDT SUN MAY 01 2016

NOTES: SATELLITE DATA IS BEING USED TO AUGMENT CLOUD COVER ABOVE
       12000 FEET.
       "FAIR" INDICATES FEW OR NO CLOUDS BELOW 12,000 FEET WITH NO
       SIGNIFICANT WEATHER AND/OR OBSTRUCTIONS TO VISIBILITY.

  * THESE STATIONS DO NOT REPORT WEATHER SUCH AS RAIN...SNOW OR FOG.

NEZ001>004-019>022-054>056-012000-
NEBRASKA PANHANDLE

CITY           SKY/WX    TMP DP  RH WIND       PRES   REMARKS
SCOTTSBLUFF    MOSUNNY   50  28  42 NW12G21   30.31F
ALLIANCE       CLOUDY    39  31  72 W5        30.28F
CHADRON        MOSUNNY   54  31  41 N15G23    30.28F
KIMBALL        CLOUDY    40  30  69 NW8       30.30F WCI  34
SIDNEY         CLOUDY    42  31  64 N15       30.29F
$$

NEZ057>060-069>072-079>082-012000-
SOUTHWEST NEBRASKA

CITY           SKY/WX    TMP DP  RH WIND       PRES   REMARKS
NORTH PLATTE   SUNNY     51  36  56 N20G28    30.23F
IMPERIAL       PTSUNNY   51  34  52 N23G32    30.24F
LEXINGTON      CLOUDY    49  39  69 N18       30.20F
MCCOOK         PTSUNNY   53  38  56 NE25      30.19F
OGALLALA       MOSUNNY   49  32  52 N13G23    30.27F
$$

NEZ005>010-023>029-035>040-094-012000-
NORTH CENTRAL NEBRASKA

CITY           SKY/WX    TMP DP  RH WIND       PRES   REMARKS
VALENTINE      PTSUNNY   53  30  41 N16G25    30.25F
AINSWORTH      MOSUNNY   52  32  45 N18G30    30.23F
BROKEN BOW     CLOUDY    50  39  66 N17G28    30.20S
O`NEILL        CLOUDY    51  39  64 N13G22    30.21F
ORD            CLOUDY    49  41  74 N20       30.19F
THEDFORD       PTSUNNY   51  34  51 N16G25    30.23F
$$

NEZ041-046>049-061>064-073>077-083>087-012000-
SOUTH CENTRAL NEBRASKA

CITY           SKY/WX    TMP DP  RH WIND       PRES   REMARKS
GRAND ISLAND   CLOUDY    45  39  79 N21       30.17R
AURORA         CLOUDY    46  41  85 N20       30.16R
HASTINGS       CLOUDY    46  39  76 N18       30.16S
HEBRON         CLOUDY    47  41  78 N15       30.14R
HOLDREGE       CLOUDY    46  40  80 N16       30.20R
KEARNEY *      CLOUDY    48  39  71 N20       30.19S
YORK           CLOUDY    45  39  81 NE20      30.15R
$$

NEZ011>018-030>034-042>045-012000-
NORTHEAST NEBRASKA

CITY           SKY/WX    TMP DP  RH WIND       PRES   REMARKS
NORFOLK        CLOUDY    47  40  76 N13       30.17S
ALBION         CLOUDY    44  42  91 N12G21    30.18S
BLAIR          LGT RAIN  46  44  90 N14G21    30.11S
COLUMBUS *     CLOUDY    46  36  66 N16       30.16S
FREMONT        LGT RAIN  46  43  90 N10G23    30.14S
TEKAMAH        LGT RAIN  47  43  86 N18       30.14R
WAYNE          CLOUDY    50  43  78 N18G24    30.17S
$$

NEZ050>053-065>068-078-088>093-012000-
SOUTHEAST NEBRASKA

CITY           SKY/WX    TMP DP  RH WIND       PRES   REMARKS
LINCOLN        CLOUDY    50  43  77 N24       30.12S
OMAHA EPPLEY   LGT RAIN  46  44  93 N14       30.11R
BEATRICE       CLOUDY    47  43  85 N17       30.10S
FALLS CITY     CLOUDY    50  45  83 N12G20    30.06R
NEBRASKA CITY  CLOUDY    47  47 100 N13G20    30.08S FOG
PLATTSMOUTH    LGT RAIN  47  45  90 N13G20    30.09S
$$

NEZ044-045-051>053-067-012000-
OMAHA AREA

CITY           SKY/WX    TMP DP  RH WIND       PRES   REMARKS
OMAHA EPPLEY   LGT RAIN  46  44  93 N14       30.11R
BLAIR          LGT RAIN  46  44  90 N14G21    30.11S
FREMONT        LGT RAIN  46  43  90 N10G23    30.14S
MILLARD        CLOUDY    46  44  93 N3        30.12R
OFFUTT AFB     LGT RAIN  47  45  92 N9        30.10R
PLATTSMOUTH    LGT RAIN  47  45  90 N13G20    30.09S
WAHOO          CLOUDY    48  43  84 N21       30.12S
$$




USA.gov is the U.S. government's official web portal to all federal, state and local government web resources and services.